Temperature
26 25 25 25 26 26 25 25 25 26 26 25 25 24 24 24 23 23 22 22 22 22 21 21 20 20 19 19 18 18 18 18 17 17 17 17 17 16 16 16 16 16 16 16
25 25 26 26 26 26 26 25 25 26 26 25 25 24 24 24 23 23 23 22 22 22 21 20 20 19 19 19 18 18 18 17 17 17 17 17 16 16 16 16 16 16 16 16
25 25 26 26 26 25 26 25 25 25 25 26 25 24 24 24 24 23 23 23 22 21 21 20 20 19 19 18 18 18 18 17 17 17 17 16 16 16 16 16 16 16 16 16
25 26 26 26 25 25 25 26 25 25 24 24 25 23 24 24 23 23 23 23 22 21 20 20 19 19 18 18 18 18 17 17 17 17 16 16 16 16 16 16 16 16 16 16
25 26 25 25 25 25 25 26 25 25 24 24 25 24 24 24 23 23 23 22 22 21 20 20 19 19 18 18 18 18 17 17 17 17 16 16 16 16 16 16 16 16 16 16
26 26 26 26 26 26 26 26 25 25 24 23 25 24 23 24 23 23 23 22 21 21 20 20 19 19 18 18 18 17 17 17 17 16 16 16 16 16 16 16 15 15 15 15
25 26 26 26 25 26 25 24 23 23 23 24 26 25 23 24 24 24 23 22 21 21 20 19 19 18 18 18 17 17 17 17 17 16 16 16 16 16 15 15 15 15 15 15
24 25 26 25 25 24 25 24 22 22 23 24 25 24 23 24 24 23 23 22 21 21 20 19 18 18 18 17 17 17 17 17 16 16 16 16 16 15 15 15 15 15 15 15
24 24 25 25 26 25 24 24 25 23 24 23 24 24 23 24 23 23 22 22 21 20 19 19 18 18 17 17 17 17 17 16 16 16 16 16 16 15 15 15 15 15 15 15
24 24 25 25 25 25 25 24 24 23 22 22 23 23 22 22 23 22 22 21 21 20 19 18 18 17 17 17 17 17 16 16 16 16 16 16 16 15 15 15 15 15 15 15
24 23 24 24 24 24 24 24 24 23 23 22 22 22 24 23 23 22 22 21 20 19 19 18 17 17 17 17 16 16 16 16 16 16 16 16 15 15 15 15 15 15 15 14
24 23 23 24 25 25 24 24 24 22 22 22 22 22 24 23 23 22 22 21 20 19 19 18 17 17 17 16 16 16 16 16 16 16 15 15 15 15 15 15 15 14 14 14
23 22 22 22 23 24 24 24 24 23 22 22 21 22 23 23 22 22 21 20 20 19 18 18 17 17 16 16 16 16 16 15 15 15 15 15 15 15 15 14 14 14 14 14
21 22 22 21 22 23 23 23 23 22 21 21 22 22 22 22 21 21 20 20 19 18 18 17 17 16 16 16 16 16 15 15 15 15 15 15 14 14 14 14 14 14 14 14
22 22 23 23 23 23 23 23 23 22 22 21 22 22 22 22 21 20 20 19 18 18 17 17 16 16 16 16 15 15 15 15 15 15 15 14 14 14 14 14 14 14 14 13
22 22 22 22 23 23 22 23 23 22 22 22 22 21 22 22 20 20 19 18 18 17 17 16 16 16 16 16 15 15 15 15 15 14 14 14 14 14 14 14 13 13 13 13
21 21 21 21 22 22 21 22 22 22 22 22 21 21 21 20 20 19 18 18 17 17 16 16 16 15 15 15 15 15 15 15 14 14 14 14 14 14 14 13 13 13 13 13
20 20 20 20 21 20 21 22 22 22 22 22 21 21 20 20 19 18 18 17 17 16 16 16 15 15 15 15 15 15 14 14 14 14 14 13 13 13 13 13 13 13 13 12
21 20 19 19 19 20 21 22 21 21 20 21 21 20 19 19 18 18 17 16 16 16 15 15 15 15 14 14 14 14 14 14 14 13 13 13 13 13 13 13 12 12 12 12
20 20 19 19 18 19 20 21 21 20 19 20 20 19 19 18 17 17 16 16 15 15 15 15 14 14 14 14 14 14 14 14 13 13 13 13 12 12 12 12 12 12 12 12
19 19 18 18 18 19 19 20 20 18 18 19 19 18 18 18 17 16 16 15 15 15 14 14 14 14 14 14 14 14 13 13 13 13 13 12 12 12 12 12 12 12 12 11
19 18 18 18 17 18 18 19 18 18 18 18 18 17 17 17 16 15 15 15 15 14 14 14 13 13 13 13 13 13 13 13 13 13 12 12 12 12 12 12 12 12 11 11
19 19 18 18 17 18 18 18 17 17 17 17 17 16 16 16 15 15 14 14 14 14 13 13 13 13 13 13 13 13 13 13 13 12 12 12 12 12 11 11 11 11 11 11
19 19 18 18 18 17 17 17 16 16 16 16 16 15 15 15 14 14 14 14 13 13 13 12 12 12 12 12 12 13 13 12 12 12 12 11 11 11 11 11 11 11 11 10
17 18 17 17 17 17 16 16 16 15 15 15 15 14 14 14 14 14 13 13 13 12 12 12 12 12 12 12 12 12 12 12 12 12 11 11 11 11 11 11 11 10 10 10
17 17 16 16 17 16 16 15 15 15 14 14 14 14 13 13 13 13 13 12 12 12 12 12 12 12 11 11 12 12 12 12 12 11 11 11 11 11 10 10 10 10 10 10
Wind_Speed
6 5 4 2 3 5 4 3 4 0 3 2 3 3 4 6 5 4 4 5 4 4 4 6 6 6 5 4 4 5 4 4 4 2 2 2 2 2 2 1 2 2 1 2
5 4 2 2 3 6 5 4 4 1 1 2 3 3 4 5 6 5 4 4 4 4 4 6 6 5 4 4 4 4 4 3 5 3 3 3 2 2 2 1 2 2 2 2
4 0 1 4 4 6 6 4 3 4 3 5 5 4 5 5 5 5 4 4 5 5 4 5 5 5 4 4 3 3 3 4 5 4 3 3 2 1 2 1 1 1 2 3
4 3 3 5 4 5 5 3 4 5 5 4 5 3 5 7 6 6 4 4 5 5 5 5 5 5 4 4 3 3 3 4 4 4 3 3 3 2 1 1 1 0 1 2
4 3 4 5 4 5 4 6 7 8 7 7 7 5 4 6 5 5 5 4 4 5 6 5 5 5 5 4 4 3 3 4 4 4 3 2 2 1 1 2 1 1 1 1
6 4 4 4 4 4 6 8 9 8 6 7 7 5 3 4 4 4 5 5 4 5 5 5 5 5 5 5 4 3 3 3 3 3 3 2 3 2 2 2 1 1 1 1
7 7 5 3 5 5 6 5 3 4 5 4 3 2 3 5 5 5 4 4 5 5 4 4 6 5 5 5 4 3 3 3 3 3 3 3 4 3 2 2 2 1 1 1
6 5 5 3 3 4 5 5 4 4 4 4 3 2 5 7 7 6 5 5 4 5 5 4 5 5 5 5 4 3 2 2 3 3 3 3 3 2 2 2 2 1 1 2
5 1 3 3 3 4 5 5 5 6 9 7 2 4 5 6 6 6 5 5 4 4 5 5 4 5 5 5 4 4 3 2 2 3 3 3 3 3 2 2 2 1 1 1
6 5 4 4 4 7 7 7 5 4 4 5 3 2 4 6 6 5 5 4 4 4 4 4 3 2 4 4 4 4 4 3 3 2 2 2 3 3 2 1 1 2 2 1
8 6 5 5 5 6 6 6 4 4 5 4 4 2 4 5 5 4 3 3 4 3 3 3 2 2 2 3 3 3 3 3 2 2 2 2 2 2 2 2 2 2 2 2
5 5 6 6 5 4 5 6 5 5 5 5 5 1 4 6 5 4 3 3 3 3 2 3 3 2 2 3 3 3 3 2 2 2 2 2 1 2 2 2 2 1 2 2
5 5 5 4 4 5 5 5 6 6 6 6 5 1 3 5 4 3 3 2 2 2 1 2 3 2 2 2 3 3 3 3 3 3 3 3 3 3 2 2 2 1 1 1
4 7 8 7 5 4 5 6 6 7 6 7 7 4 1 2 3 2 2 2 2 2 2 1 1 2 1 2 2 2 2 3 3 3 3 3 3 2 2 2 2 2 1 1
5 9 10 10 9 9 9 9 9 9 9 9 9 7 3 2 2 2 2 2 2 2 1 1 0 1 1 1 1 1 2 3 4 4 4 3 2 2 2 2 1 1 1 2
6 8 11 12 10 10 12 12 11 11 10 10 9 7 4 4 3 2 2 2 1 2 2 1 1 1 1 1 2 2 1 2 3 4 4 3 3 3 2 2 2 1 1 1
5 8 10 10 9 9 10 8 9 8 7 7 7 4 3 3 2 2 2 1 1 1 1 2 2 2 2 2 1 2 2 2 2 3 3 3 3 3 3 2 2 2 2 1
9 9 6 8 9 10 3 1 2 4 5 4 2 2 3 3 3 3 3 2 2 2 2 2 2 2 3 2 1 1 2 3 2 2 3 3 3 3 3 3 3 2 2 2
9 8 6 6 8 8 5 2 1 3 4 2 2 2 3 3 1 1 3 4 3 3 3 2 2 3 3 2 1 2 3 3 3 3 3 3 3 3 3 3 3 3 2 2
7 8 7 7 8 6 1 2 3 3 3 2 3 3 3 3 3 2 3 3 4 4 3 2 3 3 3 3 2 3 2 2 2 2 3 3 3 3 4 4 4 3 3 3
6 7 8 9 9 4 2 2 1 2 2 4 3 3 3 3 3 3 4 3 3 3 3 2 3 3 3 3 2 3 2 2 2 2 2 3 4 4 4 4 3 3 3 3
6 5 6 7 8 4 3 1 2 4 4 4 4 4 4 4 4 3 4 4 3 3 3 3 2 3 3 2 2 3 2 1 1 2 2 3 3 4 4 4 4 3 3 4
5 4 3 3 2 2 2 3 4 5 5 5 5 5 5 4 3 4 4 4 3 3 3 3 2 3 3 2 2 2 1 1 1 2 3 3 3 3 3 4 4 3 3 3
4 4 4 5 3 1 2 3 3 4 5 5 5 5 5 5 5 4 4 4 4 3 3 3 3 3 3 3 2 2 1 1 1 2 2 3 3 3 3 3 3 3 4 4
5 4 6 8 6 4 3 3 3 3 5 5 5 5 5 5 5 4 4 4 3 4 3 3 3 3 3 3 3 2 1 1 2 2 2 2 2 3 3 3 3 4 4 5
8 8 8 7 5 5 3 2 3 4 5 5 5 5 5 5 5 5 4 3 3 3 3 3 3 3 3 3 2 2 1 1 2 2 2 2 2 2 3 3 1 1 2 4
Wind_Direction
225 238 253 279 294 299 306 302 297 276 146 235 242 212 171 159 172 194 194 185 188 164 154 135 132 131 133 129 123 122 128 131 116 112 108 103 94 82 64 73 78 79 85 110
230 239 275 326 294 278 274 267 281 305 162 259 241 226 187 165 175 189 185 182 168 149 145 133 138 136 133 127 124 126 139 138 123 122 120 123 114 110 108 74 68 38 50 91
254 259 265 265 267 280 278 291 307 317 292 246 232 211 173 155 153 151 161 167 147 147 142 140 138 127 132 137 140 132 143 138 131 131 114 111 100 81 84 79 71 19 85 88
252 245 250 258 266 287 295 330 305 283 275 261 235 229 168 165 157 160 154 142 134 135 141 139 135 133 133 131 135 129 129 120 116 118 121 135 142 139 141 132 126 159 92 101
245 243 259 264 279 288 302 308 280 270 270 269 251 245 161 154 156 156 151 149 140 140 133 139 140 141 141 129 122 122 121 116 123 123 115 136 124 134 132 124 138 104 86 96
251 241 261 279 283 273 283 277 262 244 253 252 235 238 155 152 131 125 138 149 139 135 135 138 137 136 130 122 121 123 126 112 119 130 142 149 124 132 123 120 143 149 148 140
227 218 210 240 262 240 257 282 283 228 219 240 215 222 113 109 109 119 125 139 136 131 128 131 129 127 130 128 130 134 129 131 149 164 171 160 152 157 165 163 180 171 155 160
249 222 184 186 253 289 269 265 288 302 292 292 226 170 109 109 108 108 112 121 132 129 116 117 130 137 137 140 147 155 158 161 167 173 180 160 158 163 177 177 175 161 168 179
295 261 138 172 251 276 277 271 281 293 290 285 223 114 128 121 115 113 109 110 121 122 119 119 135 151 145 148 157 166 174 182 179 187 170 154 160 159 174 176 169 155 180 170
291 286 228 185 229 235 260 290 292 288 303 293 281 190 158 144 136 126 124 120 108 113 112 113 115 143 148 150 158 167 173 187 176 169 166 158 160 162 159 171 155 147 166 159
285 274 245 209 221 246 240 252 271 281 275 290 302 10 77 125 124 124 119 126 120 110 116 112 112 138 142 150 153 157 166 174 172 161 162 152 155 153 152 173 161 163 157 164
277 283 269 237 220 238 269 278 277 276 286 287 294 354 88 94 87 88 77 73 94 96 114 128 129 150 159 167 167 168 165 166 166 166 164 161 167 170 180 164 156 155 150 170
317 274 272 237 199 204 238 258 277 290 288 282 280 269 102 92 81 79 76 61 76 73 67 114 139 160 177 188 183 183 182 179 171 169 174 184 190 195 181 156 144 152 162 160
289 264 267 276 296 295 266 261 266 271 273 283 283 284 233 112 101 78 67 59 53 60 73 74 136 169 182 208 204 195 203 186 181 173 180 190 206 178 155 152 155 160 173 189
257 266 275 279 283 284 279 272 263 260 267 276 285 292 309 10 66 58 64 74 59 30 44 69 254 202 187 221 225 213 213 197 191 181 187 197 178 138 136 148 160 149 181 201
252 269 278 276 270 270 268 265 261 260 267 273 285 298 343 24 52 30 35 52 37 22 2 356 321 285 243 237 223 206 223 215 197 184 184 170 159 145 145 160 154 152 201 176
259 272 279 277 277 272 260 259 258 260 266 272 280 310 360 15 16 17 29 29 17 19 355 331 330 309 273 254 237 204 212 215 213 193 169 159 160 153 160 172 158 163 185 165
264 273 272 275 272 255 258 9 303 283 284 285 310 13 11 2 4 35 44 37 10 357 343 330 313 302 297 285 271 237 217 210 207 193 180 168 165 164 170 178 175 172 173 159
243 254 263 263 266 267 262 272 271 288 290 319 323 358 19 354 327 63 42 25 359 344 344 334 318 315 305 287 271 245 227 207 203 202 193 181 168 177 186 186 186 181 173 182
233 240 248 259 263 265 322 29 13 307 261 40 20 11 1 333 305 331 14 8 356 348 343 341 331 316 308 299 283 269 241 208 204 210 203 196 187 185 195 192 190 181 175 196
215 228 235 252 259 264 14 7 337 257 357 32 22 8 344 325 347 5 353 352 348 344 341 343 331 319 309 295 278 269 254 218 202 206 219 207 192 190 192 185 183 177 181 185
242 241 236 242 248 253 57 6 334 7 21 12 10 4 356 358 10 3 345 340 342 344 336 343 349 336 324 292 264 267 267 238 185 187 213 214 197 197 187 172 182 186 188 182
241 252 274 266 265 29 25 9 9 6 350 355 360 2 352 342 342 339 334 334 337 333 332 339 338 320 316 309 283 266 256 216 200 197 205 209 202 196 182 176 177 186 187 185
262 271 269 273 259 248 306 326 342 342 335 345 350 344 332 322 323 327 327 330 335 333 329 326 321 322 324 324 308 279 240 194 218 206 207 202 201 196 187 179 183 187 189 190
281 276 265 267 273 273 260 285 311 318 323 327 331 328 324 320 318 320 319 327 332 328 319 311 304 306 315 316 311 298 270 230 243 222 214 200 201 198 194 190 196 197 197 195
260 260 255 261 270 275 284 316 307 297 299 308 315 321 323 319 315 317 318 325 319 315 310 310 315 317 311 309 312 313 298 257 249 231 212 200 201 194 190 181 189 213 205 203
Height
1504 1506 1507 1505 1503 1503 1503 1506 1508 1503 1500 1504 1506 1507 1507 1508 1511 1513 1515 1516 1518 1519 1521 1523 1524 1526 1527 1528 1529 1530 1530 1531 1532 1533 1534 1535 1536 1537 1538 1539 1540 1540 1541 1541
1504 1506 1502 1501 1502 1502 1502 1506 1506 1502 1499 1502 1505 1506 1504 1506 1508 1511 1513 1515 1516 1518 1520 1522 1523 1525 1526 1527 1528 1529 1530 1530 1531 1532 1533 1534 1536 1536 1537 1538 1539 1539 1540 1541
1504 1504 1501 1502 1502 1503 1502 1505 1506 1506 1502 1500 1504 1508 1505 1504 1506 1509 1511 1513 1515 1517 1519 1521 1522 1524 1525 1526 1527 1528 1529 1530 1531 1532 1532 1534 1535 1536 1537 1537 1538 1539 1539 1540
1502 1500 1501 1502 1503 1503 1507 1500 1502 1504 1509 1509 1504 1518 1507 1503 1505 1507 1510 1512 1514 1516 1518 1519 1521 1522 1523 1525 1526 1527 1528 1529 1530 1531 1532 1533 1534 1535 1536 1537 1537 1538 1539 1539
1502 1500 1502 1504 1502 1502 1503 1500 1501 1502 1506 1510 1503 1510 1509 1501 1506 1506 1508 1511 1513 1515 1516 1518 1520 1521 1522 1524 1525 1526 1527 1528 1529 1530 1531 1532 1533 1534 1535 1536 1536 1537 1538 1539
1499 1499 1500 1501 1500 1500 1500 1500 1498 1499 1506 1517 1502 1507 1512 1503 1503 1505 1507 1509 1511 1514 1515 1517 1519 1520 1521 1522 1524 1525 1526 1527 1528 1529 1530 1531 1532 1533 1534 1535 1536 1536 1537 1538
1501 1498 1498 1500 1502 1500 1501 1509 1517 1518 1520 1513 1494 1501 1508 1499 1499 1502 1506 1508 1510 1512 1514 1516 1517 1518 1520 1521 1522 1524 1525 1526 1527 1528 1529 1530 1531 1532 1533 1534 1535 1535 1536 1536
1505 1505 1497 1499 1502 1504 1502 1507 1522 1530 1523 1508 1496 1503 1504 1497 1499 1502 1505 1507 1509 1512 1513 1515 1516 1517 1518 1520 1521 1523 1524 1525 1526 1527 1528 1529 1530 1531 1532 1532 1533 1534 1535 1535
1505 1505 1497 1498 1499 1501 1505 1505 1502 1512 1510 1512 1502 1502 1501 1497 1500 1503 1505 1507 1509 1511 1513 1514 1516 1517 1517 1518 1520 1521 1522 1524 1525 1526 1527 1527 1528 1529 1530 1531 1532 1533 1533 1534
1501 1507 1499 1498 1500 1500 1502 1503 1506 1513 1523 1523 1509 1505 1507 1502 1502 1503 1505 1507 1509 1511 1512 1513 1515 1516 1517 1517 1518 1520 1521 1522 1523 1524 1525 1526 1527 1528 1529 1530 1530 1531 1531 1532
1501 1507 1503 1500 1503 1504 1502 1504 1505 1509 1511 1522 1523 1515 1495 1498 1499 1502 1505 1507 1508 1510 1511 1513 1514 1515 1515 1516 1517 1518 1519 1520 1521 1522 1523 1524 1525 1526 1527 1528 1528 1529 1529 1530
1502 1505 1507 1500 1495 1496 1499 1501 1505 1517 1515 1511 1517 1516 1494 1496 1500 1503 1505 1507 1509 1510 1511 1511 1512 1514 1514 1515 1516 1516 1517 1518 1519 1520 1521 1522 1523 1524 1525 1526 1526 1527 1527 1528
1505 1508 1514 1510 1506 1500 1500 1500 1501 1505 1509 1512 1518 1515 1496 1498 1501 1504 1506 1507 1509 1510 1511 1511 1511 1512 1512 1513 1514 1515 1515 1516 1517 1518 1519 1520 1521 1522 1523 1523 1524 1525 1525 1526
1509 1507 1512 1517 1510 1502 1503 1501 1501 1506 1514 1514 1510 1507 1501 1500 1503 1505 1506 1507 1508 1509 1510 1510 1510 1510 1511 1511 1512 1512 1513 1514 1515 1516 1517 1518 1519 1520 1520 1521 1522 1523 1523 1524
1507 1508 1503 1500 1498 1498 1500 1501 1501 1504 1505 1510 1505 1503 1500 1500 1502 1504 1505 1506 1507 1508 1509 1509 1509 1509 1509 1509 1510 1510 1511 1512 1512 1513 1514 1515 1516 1517 1518 1519 1520 1520 1521 1522
1505 1506 1503 1502 1497 1497 1499 1498 1498 1499 1500 1501 1501 1501 1498 1500 1502 1504 1505 1506 1506 1507 1507 1508 1508 1508 1508 1508 1508 1508 1508 1509 1510 1511 1512 1513 1514 1515 1516 1517 1517 1518 1519 1520
1505 1506 1509 1507 1498 1499 1502 1495 1494 1496 1496 1499 1503 1502 1499 1501 1502 1504 1504 1505 1506 1506 1507 1507 1506 1506 1506 1506 1506 1506 1506 1506 1507 1508 1509 1510 1511 1512 1513 1514 1515 1516 1517 1517
1506 1506 1507 1507 1505 1513 1499 1490 1491 1494 1494 1495 1497 1499 1500 1502 1503 1504 1504 1505 1505 1505 1505 1505 1505 1504 1504 1504 1504 1503 1503 1504 1504 1505 1506 1507 1508 1509 1511 1512 1512 1513 1514 1515
1503 1506 1509 1509 1510 1504 1495 1491 1492 1495 1497 1495 1497 1498 1500 1501 1502 1503 1504 1504 1504 1503 1503 1503 1503 1502 1502 1502 1501 1501 1501 1501 1501 1502 1503 1505 1506 1507 1508 1509 1510 1511 1512 1513
1501 1502 1508 1508 1512 1511 1501 1493 1492 1496 1500 1497 1498 1499 1501 1501 1503 1503 1503 1502 1502 1502 1501 1501 1500 1499 1499 1498 1498 1498 1498 1498 1498 1499 1500 1502 1503 1504 1505 1506 1507 1508 1509 1510
1504 1504 1507 1509 1510 1503 1497 1495 1495 1505 1505 1499 1499 1500 1501 1502 1503 1503 1502 1501 1501 1500 1499 1498 1497 1496 1496 1495 1495 1495 1495 1495 1495 1496 1497 1498 1499 1500 1502 1503 1504 1505 1506 1507
1500 1503 1504 1505 1509 1508 1499 1498 1500 1502 1500 1499 1500 1501 1501 1501 1501 1501 1500 1499 1498 1498 1497 1496 1495 1494 1493 1492 1493 1492 1493 1492 1493 1493 1494 1495 1496 1497 1499 1500 1501 1502 1503 1504
1495 1497 1499 1500 1503 1500 1499 1500 1501 1501 1501 1501 1501 1501 1501 1500 1500 1500 1499 1498 1497 1496 1495 1494 1494 1493 1491 1491 1491 1490 1490 1491 1490 1490 1491 1492 1493 1494 1495 1496 1497 1498 1500 1501
1493 1494 1496 1497 1496 1498 1499 1500 1500 1501 1501 1501 1500 1500 1500 1499 1499 1498 1497 1496 1495 1494 1493 1492 1492 1491 1490 1489 1489 1489 1489 1489 1488 1488 1488 1489 1490 1491 1492 1493 1494 1495 1496 1497
1494 1495 1495 1496 1496 1497 1498 1499 1499 1499 1500 1499 1499 1499 1499 1498 1497 1496 1495 1494 1493 1492 1492 1491 1489 1489 1488 1487 1487 1487 1486 1486 1486 1486 1486 1487 1487 1488 1489 1490 1491 1491 1492 1493
1494 1494 1495 1495 1495 1496 1496 1497 1497 1498 1498 1497 1497 1497 1497 1496 1495 1494 1493 1492 1491 1490 1490 1489 1488 1487 1486 1485 1485 1485 1485 1484 1484 1484 1484 1484 1484 1485 1486 1486 1487 1488 1490 1490